Overview Statistics Trail Chart Weather Telemetry Raw packets
 

This is the latest recevied weather packets stored in our database for station/object SV9TNF-52. If no packets are shown the sender has not sent any weather packets the latest 10 day(s).

<< 32 33 34 35 36 37 38 >>
Time Temp. Humidity Pressure Rain* Wind** Luminosity Snow
1788438859 30.56° C 56% 1017.6 hPa 0 mm 4.92 m/s, 30° - -
1788438554 29.44° C 58% 1017.6 hPa 0 mm 5.81 m/s, 14° - -
1788438254 29.44° C 59% 1017.6 hPa 0 mm 9.83 m/s, 29° - -
1788437953 28.89° C 59% 1017.6 hPa 0 mm 13.86 m/s, 27° - -
1788437653 30° C 58% 1017.6 hPa 0 mm 8.49 m/s, 65° - -
1788437353 30.56° C 56% 1017.6 hPa 0 mm 4.92 m/s, 20° - -
1788437053 31.11° C 57% 1017.6 hPa 0 mm 2.68 m/s, 27° - -
1788436753 31.11° C 56% 1017.6 hPa 0 mm 1.79 m/s, 175° - -
1788436453 30.56° C 56% 1017.6 hPa 0 mm 6.71 m/s, 95° - -
1788436153 30° C 57% 1018 hPa 0 mm 8.49 m/s, 201° - -
1788435852 29.44° C 58% 1018 hPa 0 mm 4.92 m/s, 39° - -
1788435552 29.44° C 58% 1018 hPa 0 mm 11.18 m/s, 41° - -
1788435252 29.44° C 58% 1017.6 hPa 0 mm 7.15 m/s, 5° - -
1788434952 29.44° C 58% 1017.6 hPa 0 mm 8.05 m/s, 356° - -
1788434652 29.44° C 57% 1018 hPa 0 mm 3.58 m/s, 357° - -
1788434352 29.44° C 59% 1018 hPa 0 mm 6.26 m/s, 353° - -
1788434052 29.44° C 58% 1018 hPa 0 mm 12.52 m/s, 19° - -
1788433752 30° C 58% 1017.6 hPa 0 mm 7.15 m/s, 330° - -
1788433452 30° C 57% 1017.6 hPa 0 mm 8.05 m/s, 298° - -
1788433152 29.44° C 58% 1017.6 hPa 0 mm 9.83 m/s, 352° - -
1788432852 29.44° C 59% 1017.6 hPa 0 mm 13.41 m/s, 25° - -
1788432551 30.56° C 59% 1017.6 hPa 0 mm 6.26 m/s, 332° - -
1788432252 30.56° C 54% 1017.6 hPa 0 mm 12.07 m/s, 357° - -
1788431952 31.67° C 52% 1017.6 hPa 0 mm 2.68 m/s, 346° - -
1788431651 31.67° C 51% 1017.6 hPa 0 mm 3.13 m/s, 229° - -

* Rain latest hour (hover to see other rain measurements)
** Current wind speed in m/s (hover to see current wind gust speed)